Wind_Speed
48 49 49 47 48 50 53 55 57 58 56 54 54 54 55 56 56 56 54 54 53 53 52 51 50 49 49 49 48 48 47 46 45 44 42 41 40 40 41 42 43 44 47 49 51 52 52 51 49 48 47 46 45 44 44 43 43 44 44 44 45 45 45 45 46 48 48 47 45 44 43 42 42 42 42 43 44 45 45 46 46 47 47 47 47
51 51 51 50 48 49 51 54 56 57 55 54 54 53 54 55 56 56 56 55 55 55 55 54 54 53 53 53 53 52 52 51 49 47 44 43 43 44 44 44 46 48 51 55 57 57 56 54 52 52 51 50 49 48 47 47 46 46 47 47 47 48 48 48 49 50 50 50 49 48 47 46 46 46 45 45 45 46 47 47 47 48 49 49 49
54 53 53 53 52 52 54 55 56 54 52 53 55 54 54 56 57 58 58 58 58 58 58 58 57 56 55 55 55 54 54 53 52 50 48 48 48 48 49 49 51 55 59 62 62 60 58 56 54 53 53 53 53 52 51 50 50 50 51 51 52 52 51 51 52 52 52 52 51 51 50 50 50 49 49 48 48 48 48 49 49 50 51 50 51
55 53 53 54 55 56 56 56 55 53 51 53 56 57 57 58 58 59 59 59 58 58 59 59 57 57 57 57 56 57 57 56 56 54 52 52 52 53 55 57 60 63 65 65 64 61 58 55 53 52 52 53 54 55 55 54 54 54 55 56 56 56 56 56 56 55 55 55 54 53 53 52 52 51 51 50 50 50 50 51 51 52 53 53 52
56 55 54 55 56 58 58 57 57 56 55 56 56 57 59 60 60 61 60 60 59 60 60 60 59 59 59 60 60 60 60 59 59 57 57 57 57 58 60 64 66 66 66 64 63 59 56 52 50 49 49 51 53 55 56 57 57 58 59 60 60 60 60 60 59 59 58 58 57 56 55 54 54 53 53 52 52 53 53 53 53 53 54 54 54
60 59 58 57 57 59 61 61 61 61 61 59 57 56 57 58 59 61 61 62 61 61 61 60 60 60 62 63 63 63 63 62 61 60 60 61 62 64 67 68 66 63 61 60 58 55 51 49 47 46 47 48 50 52 54 55 56 57 59 60 60 61 62 61 60 59 59 59 58 57 56 56 55 54 55 54 54 54 55 55 55 55 55 55 55
61 59 58 58 58 58 58 59 61 62 62 60 57 57 57 57 59 60 60 61 60 60 61 61 61 61 62 63 63 63 63 63 63 64 65 68 69 68 66 61 55 52 50 49 50 49 48 46 45 45 45 46 48 50 51 52 54 55 57 58 59 60 60 60 59 59 59 59 58 57 56 56 55 54 55 55 55 55 56 56 57 57 57 57 56
59 58 55 54 56 55 51 51 54 58 58 56 54 56 57 58 60 61 61 61 61 61 61 60 60 60 62 65 66 65 64 64 66 68 68 66 62 56 51 46 41 39 38 39 42 44 45 45 46 46 45 46 47 49 49 50 51 53 54 56 57 57 58 58 58 59 59 58 57 56 55 55 55 54 55 55 55 55 56 57 58 59 59 59 59
60 59 56 54 56 54 49 49 53 54 53 54 55 58 60 62 64 66 66 66 66 66 64 62 61 61 62 64 62 62 64 63 63 63 59 53 47 43 43 41 38 36 36 37 39 41 44 45 46 47 47 47 48 49 49 50 50 51 53 54 55 55 55 56 57 57 57 55 55 55 55 54 54 54 54 54 55 56 57 58 59 60 61 62 62
60 59 59 59 61 61 57 56 59 60 59 60 60 59 58 61 65 68 69 71 71 71 68 63 57 51 50 52 51 52 56 56 56 59 58 55 54 51 47 43 41 40 38 38 41 46 49 51 52 52 51 51 51 51 51 51 51 52 52 53 54 54 54 55 55 56 55 54 54 55 55 54 53 53 54 54 55 56 57 58 60 61 62 64 65
64 63 64 66 68 70 70 70 71 71 71 70 67 64 63 65 68 70 71 72 72 71 68 63 56 50 48 51 51 53 57 59 62 65 63 62 62 58 51 47 48 48 49 52 57 61 63 62 61 59 56 55 54 54 54 54 54 54 54 54 55 54 54 54 54 55 55 54 55 56 56 56 55 54 55 56 56 56 57 57 59 61 63 64 66
68 68 70 72 74 76 77 77 77 76 75 74 71 68 67 68 68 67 67 68 67 67 67 65 63 62 60 58 58 61 64 65 66 66 65 65 64 60 57 57 59 62 65 68 69 68 67 65 63 61 59 58 57 56 56 56 56 56 57 56 56 56 55 55 55 55 55 55 55 55 57 58 57 57 57 57 57 57 58 58 58 60 62 63 65
69 70 71 73 75 77 79 79 78 76 74 72 67 62 60 62 65 67 69 71 72 73 74 71 69 68 67 66 67 70 72 70 67 66 67 68 68 67 68 72 75 76 76 74 70 68 66 64 62 61 60 60 59 58 58 57 57 58 58 58 58 58 57 57 56 56 56 56 56 56 56 58 58 58 58 58 57 57 58 59 60 61 63 64 65
67 68 69 71 73 75 77 78 78 78 76 73 69 67 66 69 73 76 78 80 81 81 80 77 73 70 69 67 67 70 72 72 73 73 75 78 81 84 87 89 89 85 81 76 73 70 66 64 63 62 61 61 61 61 61 60 60 59 59 60 60 60 60 59 59 58 57 57 57 57 57 57 57 56 57 58 58 57 58 59 61 62 64 66 68
71 71 72 73 73 74 75 75 76 77 78 77 77 77 78 79 80 81 81 81 82 82 81 79 78 77 77 77 79 81 83 85 87 88 90 93 95 95 96 94 91 86 80 75 72 69 67 64 64 64 64 64 64 64 64 64 63 63 63 63 63 63 62 62 62 61 60 59 59 58 58 58 58 57 57 58 58 58 59 60 61 63 65 67 69
76 76 76 77 77 77 77 77 77 78 79 80 82 83 85 85 86 87 86 85 84 83 82 81 81 81 83 85 87 90 92 94 95 96 97 98 97 97 95 93 89 84 78 72 69 68 67 66 65 66 67 67 67 67 67 66 66 67 67 67 67 67 67 67 67 66 65 64 62 62 61 61 61 60 60 60 60 61 61 61 62 63 65 67 69
77 78 79 80 81 81 82 82 83 83 83 83 85 86 87 89 90 90 90 90 89 89 88 87 87 86 86 86 88 89 90 91 92 92 93 95 95 95 93 90 87 83 79 74 69 67 67 67 68 69 69 70 70 70 71 70 69 69 69 70 69 70 70 71 71 71 71 70 68 67 65 65 64 64 63 62 62 63 63 63 63 63 63 64 67
73 75 77 79 80 82 83 84 86 86 87 88 89 90 91 91 92 93 94 94 94 94 95 94 94 94 94 94 94 94 94 94 94 93 92 92 92 92 90 88 85 83 80 76 74 71 69 68 68 69 70 72 73 73 74 73 72 71 71 72 71 71 72 73 73 73 73 72 71 70 70 69 68 67 66 65 65 64 64 63 62 61 60 61 63
67 69 70 72 73 74 76 79 81 83 86 88 89 91 92 93 94 94 95 96 97 97 97 97 97 98 98 98 98 97 97 95 93 91 90 88 87 86 85 83 81 78 76 73 72 71 70 68 67 68 69 71 73 74 75 74 73 72 72 72 72 72 73 74 74 73 72 72 72 71 71 71 70 69 67 66 65 63 62 61 59 58 58 58 59
68 68 68 68 68 68 70 71 74 76 79 81 83 84 86 87 88 89 90 91 92 92 92 92 92 92 92 92 91 90 89 87 85 83 82 81 80 79 79 78 75 74 72 69 67 67 67 67 67 66 67 68 70 71 72 72 71 71 70 70 69 69 70 71 72 72 71 70 70 71 70 69 68 66 63 61 60 60 59 59 58 58 57 57 58
72 71 69 68 68 68 69 70 72 74 76 77 78 79 79 80 81 81 82 83 83 83 83 83 83 83 83 83 82 82 82 80 79 78 78 78 77 76 76 76 75 73 71 69 67 64 63 66 68 66 64 65 66 66 67 67 67 66 65 65 64 65 65 65 67 68 68 67 67 67 66 64 62 60 59 58 57 58 58 58 59 59 59 58 59
76 75 74 72 71 70 70 71 72 74 76 77 78 78 79 79 79 79 79 79 79 80 80 80 80 80 80 80 80 80 80 79 78 78 78 78 77 76 76 76 76 75 73 72 70 65 63 66 69 67 65 64 65 65 65 64 64 63 62 62 62 62 62 62 63 64 65 65 64 63 61 59 58 58 57 56 56 57 58 59 60 60 60 60 60
78 78 78 78 77 76 75 74 74 76 77 78 79 79 80 80 80 81 81 80 80 81 81 81 81 81 81 81 81 81 82 81 79 79 79 79 78 78 78 78 78 78 77 75 73 69 66 68 70 69 69 68 67 67 66 66 65 64 64 63 63 62 62 61 61 61 62 62 61 61 59 58 58 57 57 57 57 58 59 60 61 62 62 62 63
81 80 81 81 81 81 80 79 79 79 79 80 80 81 81 82 82 83 83 82 82 83 83 84 84 83 83 83 83 84 84 83 82 80 80 79 79 79 79 79 80 80 80 79 77 73 71 72 72 72 72 72 71 71 70 69 69 68 67 66 65 65 64 63 62 62 62 61 61 62 61 60 60 60 59 59 60 60 61 62 63 64 64 64 65
83 83 83 84 84 84 84 84 83 83 83 83 83 83 83 83 84 85 85 85 85 85 85 85 86 85 85 86 86 86 86 86 85 84 82 81 81 81 80 80 80 80 80 80 80 78 76 75 75 75 75 75 75 75 74 73 73 72 71 70 69 68 67 66 65 65 64 64 64 64 63 63 63 63 63 63 63 63 64 64 65 65 65 65 66
86 86 87 87 87 87 88 87 87 87 86 86 85 86 86 85 86 87 87 87 87 88 88 88 88 87 88 88 89 88 87 87 87 87 85 84 83 82 82 81 81 81 81 81 82 82 80 79 78 78 78 78 78 78 78 77 76 76 75 74 73 72 71 70 69 68 68 68 68 67 66 66 66 66 67 67 67 67 67 67 67 67 66 66 66
89 89 90 90 91 91 91 91 91 91 90 89 89 88 88 87 87 88 89 90 90 90 91 91 90 90 90 91 91 89 87 86 87 87 86 84 83 82 81 81 81 81 81 81 82 82 81 81 80 79 79 79 79 79 79 79 79 78 78 77 76 75 74 73 72 72 71 71 71 70 69 69 69 69 69 70 70 70 69 69 69 68 67 67 66
92 93 93 94 94 94 95 95 94 94 93 93 92 91 90 90 89 89 90 92 92 92 93 93 92 92 93 92 92 91 88 86 86 86 85 84 83 81 80 81 80 80 79 80 80 80 80 80 80 79 79 79 79 79 79 79 80 80 79 79 78 77 76 76 75 74 74 74 73 72 71 71 71 71 71 71 71 70 70 69 69 68 67 66 66
94 95 95 96 96 97 97 96 96 96 95 95 95 93 93 92 91 90 91 93 94 94 94 94 94 94 94 93 93 93 91 89 88 88 86 85 84 82 81 81 81 80 79 79 79 79 78 78 78 78 78 78 78 78 78 78 79 79 79 79 79 78 78 78 77 76 76 75 74 74 73 73 72 72 72 71 71 70 70 69 68 67 66 66 66
94 95 96 96 96 97 97 97 97 96 96 97 97 96 95 94 93 92 92 93 95 96 95 94 94 94 94 94 95 95 93 91 90 90 89 87 86 85 84 83 82 82 81 79 78 78 77 77 76 76 76 77 77 77 77 77 77 77 78 79 78 78 78 78 78 78 77 77 76 75 74 74 73 73 72 72 71 70 69 68 67 66 65 65 65
93 94 95 96 96 95 95 96 96 96 96 96 96 96 95 94 94 93 93 93 94 95 95 95 94 93 93 94 94 95 94 92 91 91 90 88 87 87 86 84 84 83 82 80 78 77 75 75 74 75 75 76 76 76 76 76 76 76 76 77 77 77 77 78 78 77 77 77 77 76 75 75 74 74 73 72 71 70 68 67 65 64 63 63 63
91 92 93 93 93 93 94 94 94 94 94 94 94 93 93 93 92 92 92 92 92 92 93 94 93 92 93 93 92 92 94 94 92 91 89 88 86 86 85 85 85 85 85 83 81 78 75 74 74 75 75 75 75 75 74 74 74 74 74 75 76 76 77 77 77 77 76 76 76 76 75 74 74 73 72 71 70 68 66 64 63 62 61 61 59
86 87 88 89 89 90 90 90 90 91 91 91 90 90 89 89 89 89 88 88 89 89 90 91 91 91 91 91 90 90 92 93 93 91 89 87 85 84 83 83 84 85 85 85 83 80 78 78 78 77 77 77 75 74 73 73 72 73 73 73 74 75 75 76 76 75 75 74 74 74 74 73 72 71 70 68 66 65 63 61 60 59 59 57 55
81 81 82 83 83 84 84 84 85 85 85 85 85 85 84 85 85 84 83 83 84 84 85 85 86 87 87 87 88 89 90 91 90 88 86 85 83 82 82 82 82 83 83 83 81 79 78 78 78 78 78 77 76 75 74 73 72 72 72 72 72 72 73 73 73 73 72 72 72 71 70 69 68 67 66 64 63 61 59 58 57 56 55 53 51
77 77 78 79 79 79 78 78 78 79 79 78 78 78 79 79 79 79 79 78 77 78 78 78 78 79 80 83 85 85 85 85 83 81 79 78 77 77 77 78 78 77 77 77 75 73 72 73 75 74 73 72 72 72 72 71 71 70 70 70 70 69 69 69 69 69 69 68 67 66 66 65 64 62 61 60 58 57 56 55 54 52 51 49 48
72 73 74 76 76 76 75 74 73 73 73 73 73 74 75 75 74 74 74 73 72 72 72 71 70 71 73 76 79 79 79 77 75 73 72 71 70 70 71 72 71 71 70 69 68 66 66 67 68 67 66 66 66 66 66 65 65 66 66 66 66 66 66 66 65 65 64 64 63 62 61 60 59 58 57 55 54 53 52 51 49 48 47 46 44
68 69 70 72 73 73 72 70 69 68 68 68 69 71 71 71 71 70 70 70 70 70 69 66 65 67 70 71 71 72 73 71 69 67 67 67 66 66 67 66 66 65 64 62 61 59 60 61 61 59 59 59 59 59 59 59 59 59 60 61 62 62 62 61 61 60 60 59 59 58 57 56 55 53 52 51 50 49 48 47 46 45 44 43 42
65 66 67 68 68 69 68 67 65 65 65 65 66 66 66 66 66 66 66 67 67 67 66 63 62 65 69 68 66 66 68 68 65 64 63 64 63 63 64 64 62 60 58 57 56 56 56 56 55 54 54 54 54 53 53 52 53 53 55 56 56 57 57 56 56 56 55 55 54 53 52 51 50 49 48 47 46 46 45 44 43 42 41 40 40
62 63 63 63 64 64 64 63 63 63 63 62 62 62 62 62 63 62 63 64 64 63 63 62 61 63 65 65 65 65 64 63 62 62 61 62 62 61 61 62 60 57 55 53 53 53 53 52 51 51 50 50 49 48 47 47 48 49 49 50 51 51 51 51 51 50 50 50 49 49 48 47 46 45 44 44 43 43 42 42 41 40 39 38 37
58 59 58 59 59 60 61 61 61 61 60 60 60 59 59 59 60 60 60 60 60 60 61 61 60 60 60 62 65 66 62 59 60 61 60 59 59 58 58 59 58 55 52 51 52 51 50 49 49 49 48 46 45 44 44 44 44 45 45 45 46 46 46 46 46 46 46 45 45 45 44 43 43 42 42 41 41 41 40 40 39 38 37 35 35
54 54 54 55 56 57 57 57 57 58 58 59 58 57 57 57 57 57 57 57 57 58 59 59 58 57 57 59 63 64 62 59 59 59 58 57 56 56 56 56 55 53 51 50 49 48 48 48 48 47 45 44 43 42 42 42 41 41 41 42 42 42 42 42 43 42 42 42 42 42 41 41 40 40 40 40 40 39 38 38 37 36 34 34 34
51 51 51 51 52 53 53 53 54 55 56 56 55 55 55 55 55 55 55 55 55 56 57 57 55 55 56 57 59 60 60 58 57 56 55 55 55 54 53 53 52 51 49 48 47 46 47 47 47 46 43 42 41 41 40 39 39 39 39 39 39 40 40 40 40 40 40 40 40 40 39 39 39 39 39 38 38 37 36 35 35 34 33 33 33
47 48 48 49 49 49 50 50 51 52 52 52 52 52 53 53 53 53 53 54 54 54 54 54 54 54 54 54 55 57 56 54 53 52 52 52 52 51 50 50 50 49 47 46 46 46 46 46 45 44 42 41 40 39 38 38 37 37 37 38 38 38 38 38 39 39 39 38 38 38 38 37 37 37 37 36 36 35 35 34 33 32 32 32 32
43 44 44 45 45 46 46 47 48 48 48 49 49 50 50 51 51 51 51 52 52 52 52 52 51 51 51 51 52 53 52 51 49 48 48 47 47 47 47 47 47 46 46 46 45 45 45 44 44 42 41 40 39 38 37 36 36 36 36 36 37 37 37 37 37 37 37 37 36 36 36 36 35 35 35 35 34 34 34 33 32 32 32 32 31
39 39 40 40 41 42 42 43 44 44 45 45 46 46 47 47 48 48 48 48 49 49 49 49 49 49 49 49 49 50 49 48 46 45 44 43 43 43 43 43 44 44 45 45 44 44 44 43 42 41 40 39 38 37 36 35 35 35 35 35 35 35 35 35 35 35 35 35 34 34 34 34 34 34 34 34 34 33 33 32 32 31 31 31 31
36 36 37 37 38 38 39 39 40 40 41 42 42 43 43 43 44 44 44 44 45 45 45 45 46 46 46 46 46 47 46 45 44 42 42 41 41 40 41 41 42 42 43 43 43 43 42 41 40 40 39 38 37 36 35 35 34 34 34 34 34 34 34 33 33 33 33 33 33 33 33 33 33 34 34 33 33 33 32 32 31 31 31 31 31
33 33 34 34 35 35 35 36 36 37 37 38 38 39 39 39 40 40 40 40 41 41 42 42 42 42 43 43 43 43 43 42 41 40 40 40 39 39 39 40 40 41 41 42 42 42 41 40 39 39 38 37 36 35 35 34 34 33 33 33 32 32 32 32 32 32 32 32 32 33 33 33 33 33 33 33 33 33 32 31 31 31 31 31 31
30 30 31 31 31 32 32 33 33 34 34 35 35 35 35 36 36 36 36 37 37 37 38 38 39 39 39 40 40 40 39 39 38 38 38 38 37 37 38 38 39 40 40 40 41 40 39 39 38 38 37 36 36 35 34 34 33 33 32 32 32 32 32 32 32 32 32 32 33 33 33 33 33 33 33 33 33 33 32 31 31 31 31 31 32
27 27 27 28 28 28 29 30 30 31 31 31 32 32 32 32 32 33 33 33 33 34 35 35 35 36 36 36 36 36 36 36 36 36 36 36 36 36 37 37 38 38 39 39 39 38 38 38 37 37 36 36 35 34 34 34 33 33 32 32 32 32 32 32 32 32 33 33 33 33 33 33 33 34 33 33 33 33 32 31 31 31 31 32 32
24 24 24 24 25 25 26 26 27 27 27 28 28 28 29 29 29 30 30 30 31 31 32 32 32 33 33 33 33 33 33 33 33 33 34 34 34 35 35 36 36 37 37 37 37 37 37 37 37 36 36 35 34 34 34 34 33 33 32 32 32 32 32 32 33 33 34 34 34 34 34 34 34 34 34 34 33 33 32 32 32 32 32 32 32
22 22 22 22 22 22 22 23 23 24 24 25 25 25 26 26 27 27 27 28 28 29 29 30 30 30 30 31 31 31 31 31 31 32 32 32 33 33 34 34 35 35 36 36 36 36 36 36 36 36 35 35 35 34 34 34 34 34 33 33 33 33 33 33 34 34 34 34 34 34 34 34 34 34 34 34 34 33 33 33 32 32 32 33 33
Wind_Direction
246 246 244 244 246 247 248 248 248 250 252 256 258 259 259 260 261 263 264 266 268 271 273 274 274 275 276 276 276 277 279 281 283 283 281 278 276 275 275 278 282 287 290 293 295 296 296 295 292 288 283 278 275 273 271 269 268 265 262 261 261 262 262 263 263 263 264 264 266 267 268 270 272 273 273 274 273 270 266 264 263 262 261 260 259
245 247 247 246 247 249 249 249 250 250 252 255 256 258 259 261 262 263 265 266 268 270 272 273 274 275 275 276 278 279 281 283 284 283 281 278 276 275 276 278 280 284 287 290 292 293 294 293 292 289 284 278 274 271 270 269 268 267 265 264 263 263 263 264 264 265 265 266 267 267 269 270 270 271 271 272 272 271 268 264 262 261 260 260 259
245 247 249 248 248 249 251 252 252 252 252 252 254 257 261 264 266 266 267 268 270 271 273 274 275 275 276 278 279 281 283 284 285 284 282 280 279 278 278 278 280 284 288 290 291 291 292 291 290 288 283 278 273 270 269 267 267 267 267 267 266 265 265 265 266 267 267 267 267 268 269 270 270 270 270 269 269 269 267 264 261 259 258 257 258
245 247 249 250 250 251 252 253 254 252 251 253 257 259 261 264 266 267 269 269 270 271 272 273 275 276 278 279 280 282 283 284 284 283 281 281 281 280 281 282 285 288 290 290 291 291 291 290 288 285 280 276 272 270 268 267 267 267 267 268 267 266 267 268 269 269 268 268 268 269 269 270 271 271 270 269 268 267 266 264 261 259 258 256 256
244 245 249 252 253 254 254 254 254 253 254 258 261 261 261 262 263 265 267 268 269 271 272 274 275 277 279 280 282 283 283 284 283 281 279 280 281 282 285 288 290 291 291 291 291 290 289 288 285 282 278 274 271 269 268 267 267 267 267 268 267 267 268 269 269 270 269 269 269 269 270 271 271 271 270 269 268 267 265 263 261 260 259 257 256
247 246 248 252 255 257 258 259 259 259 261 264 264 263 262 262 263 265 267 269 271 272 273 275 276 278 280 282 283 284 283 283 282 280 279 280 282 285 289 292 293 293 293 291 290 288 288 286 283 281 278 274 271 269 268 267 267 267 266 267 267 267 267 268 269 269 269 269 269 269 270 270 270 270 270 268 267 266 264 262 260 259 259 258 257
251 249 248 250 255 258 261 264 265 264 265 265 264 263 262 263 265 267 269 270 272 273 274 276 278 281 283 283 284 284 284 283 281 279 280 282 285 288 292 294 296 295 294 292 290 287 285 283 282 280 277 274 272 270 269 267 266 266 266 266 266 267 267 268 268 268 268 268 269 270 270 270 270 269 268 267 266 265 263 262 260 258 258 258 257
249 251 250 250 252 255 256 259 263 263 263 262 260 260 263 266 268 269 270 272 273 273 275 277 280 283 284 284 285 284 283 283 282 282 284 285 287 291 294 295 296 295 291 290 289 286 284 283 281 280 277 274 272 270 269 268 266 265 265 265 265 266 267 268 268 268 268 269 270 271 270 270 269 268 267 266 265 264 263 261 260 259 258 258 257
244 247 247 247 249 249 247 248 251 254 254 255 258 263 267 270 270 271 272 273 273 273 274 277 282 284 283 283 284 283 283 282 281 281 284 284 285 291 294 292 289 286 283 282 282 283 284 283 281 279 277 274 272 270 269 268 267 265 265 265 265 266 267 267 268 269 269 270 270 270 269 268 268 268 268 267 266 265 263 261 260 259 258 258 257
240 240 240 241 244 246 244 242 243 246 249 254 259 264 267 269 270 271 272 272 272 273 274 275 277 279 280 280 280 280 280 278 276 278 280 278 279 284 286 284 282 279 276 274 274 278 281 281 280 279 278 275 271 269 268 267 267 266 266 266 267 267 268 268 268 269 269 269 268 268 268 268 268 268 268 267 267 266 264 262 261 259 258 258 257
240 238 237 238 241 244 246 247 249 252 255 257 260 261 263 265 268 270 270 270 270 271 271 271 269 267 270 274 276 276 275 274 275 277 277 275 276 277 274 274 275 275 273 274 276 279 280 280 279 279 277 274 271 269 267 267 266 266 266 267 267 267 267 267 268 268 269 268 267 267 267 267 268 268 268 267 266 266 266 264 262 260 259 258 258
245 243 241 241 242 244 246 249 252 254 257 260 262 264 264 264 265 264 264 265 267 268 269 270 269 267 267 268 269 270 271 272 273 274 273 273 274 272 270 271 275 277 278 279 280 281 281 279 279 277 275 272 270 269 268 267 267 267 267 267 267 267 266 266 267 267 268 268 267 266 266 266 266 267 267 266 266 265 266 265 264 262 260 259 258
247 246 245 245 245 245 246 247 249 251 254 257 259 259 258 258 258 259 260 263 266 268 269 270 271 270 268 266 265 265 267 268 268 269 271 272 272 272 273 276 279 280 280 279 279 279 278 278 277 276 275 273 271 270 269 268 268 268 268 268 268 268 268 268 268 268 268 268 267 266 265 265 264 264 265 265 265 265 265 265 264 262 261 260 260
246 246 247 246 247 247 247 248 249 249 250 250 250 250 251 253 256 259 261 264 266 268 269 269 269 268 266 263 262 262 264 266 267 269 271 273 274 275 276 278 280 280 279 277 275 275 275 274 274 273 272 271 272 272 272 271 271 270 270 270 270 270 271 271 271 271 271 271 270 269 268 268 267 266 265 264 264 265 265 264 264 263 262 261 261
245 246 247 247 248 249 249 249 250 250 249 248 248 249 250 253 255 258 260 262 264 266 268 268 268 267 266 264 264 265 266 268 269 271 272 274 275 277 278 279 280 280 278 275 272 270 270 270 269 269 268 268 269 271 272 272 273 273 273 273 273 274 274 275 275 275 275 274 274 274 273 273 273 272 270 269 268 267 266 265 264 263 263 263 263
247 247 248 249 250 251 251 252 251 252 252 252 251 251 252 253 254 257 258 260 262 264 265 266 267 267 267 268 269 270 271 272 273 275 276 277 278 279 281 282 282 282 280 276 271 268 267 267 267 267 267 266 267 268 269 270 271 272 273 273 274 275 276 277 278 279 279 278 278 277 277 277 277 276 275 274 273 272 271 269 266 264 263 263 263
250 250 250 250 250 251 252 252 253 253 254 254 254 254 255 255 256 257 258 259 261 262 263 264 265 265 266 267 269 271 272 274 275 276 278 279 280 281 282 283 283 283 283 281 278 273 269 267 267 267 267 266 266 266 267 268 269 269 270 270 271 272 273 275 276 278 279 279 280 280 280 279 279 279 278 277 276 275 274 272 270 267 265 264 263
254 253 253 252 252 252 253 253 254 254 254 255 255 256 257 257 258 259 260 260 261 262 263 264 264 265 266 267 267 269 270 271 272 274 275 276 277 278 279 279 280 280 281 281 281 279 275 272 269 268 268 268 267 267 267 268 269 269 269 270 270 271 272 273 274 275 276 277 278 279 280 280 280 280 280 280 278 277 275 273 271 269 267 265 264
256 255 255 254 254 255 255 255 255 255 255 255 255 256 257 258 258 260 261 261 262 262 263 264 265 265 266 267 268 268 269 270 271 271 272 273 273 274 275 276 276 277 277 278 278 278 277 275 273 271 269 269 269 269 270 271 272 272 272 272 272 272 273 273 274 274 275 276 277 277 278 279 279 280 279 278 277 276 275 274 273 271 270 268 266
259 257 256 255 254 255 256 256 256 256 256 256 256 256 257 257 258 259 260 261 262 263 264 264 265 265 266 267 268 269 269 270 270 271 271 271 272 273 274 275 275 275 276 276 275 276 276 276 275 273 272 271 271 271 272 273 273 273 273 273 273 272 272 273 274 274 275 275 275 276 277 277 277 277 276 275 275 275 275 274 274 274 273 272 271
265 262 260 257 255 255 255 257 257 258 258 258 258 258 258 258 259 259 260 261 262 263 263 264 265 265 266 267 268 268 269 270 270 270 271 271 272 272 273 274 275 275 275 275 275 275 276 277 275 274 273 273 273 273 273 274 274 274 274 274 273 273 273 273 274 274 275 275 275 275 275 275 275 275 275 275 275 275 275 275 275 275 275 274 274
268 267 266 263 260 258 257 257 258 260 260 261 261 261 260 260 260 260 260 261 262 262 263 263 264 265 266 267 267 268 268 269 269 270 271 271 272 272 273 274 274 275 275 275 275 275 276 276 276 276 276 275 275 275 275 275 275 276 276 275 275 274 274 274 273 273 274 274 274 274 274 274 274 275 275 275 275 275 276 276 276 276 276 275 275
266 266 267 267 266 264 262 261 260 261 261 261 262 262 262 262 262 261 261 261 262 262 263 263 264 264 265 266 266 267 267 268 268 269 270 271 271 272 273 274 275 275 276 276 276 276 276 275 276 277 277 277 277 276 276 277 277 277 276 276 276 275 274 274 273 273 273 273 274 275 275 275 275 275 275 275 275 275 276 276 276 276 276 276 276
264 264 265 266 266 266 265 264 263 263 262 262 262 263 263 263 264 264 263 263 262 262 263 263 263 264 264 264 265 265 266 266 266 266 267 268 269 270 271 272 273 274 275 276 276 276 276 275 276 276 277 277 277 277 277 277 277 276 276 276 275 275 275 275 274 274 274 274 275 275 276 276 276 277 277 276 276 276 276 276 277 277 277 277 277
264 264 264 265 265 265 265 265 264 264 263 263 263 264 264 264 265 265 265 265 264 264 264 263 263 263 264 264 264 264 264 265 265 265 264 264 265 266 267 268 269 270 272 273 274 275 274 274 274 275 275 276 276 276 276 276 276 277 276 276 276 276 276 276 276 276 276 277 277 277 277 278 278 279 279 279 278 278 278 278 278 278 278 279 279
263 263 264 264 265 265 265 265 265 264 264 264 264 264 264 264 265 266 266 266 266 266 266 266 265 265 265 264 264 264 264 265 265 265 265 264 264 264 264 265 266 267 268 269 270 271 271 271 271 272 272 273 274 274 275 275 276 276 276 276 277 277 277 277 278 278 278 278 278 278 278 279 279 280 280 280 280 280 280 280 280 280 281 281 281
262 262 263 264 264 265 265 265 265 265 265 264 264 264 263 264 264 265 266 266 266 266 267 267 267 267 266 266 266 265 265 265 266 266 266 266 266 265 266 266 265 266 266 267 267 268 269 269 270 270 270 271 271 272 273 274 274 275 275 276 276 277 277 277 278 278 278 278 278 278 279 279 279 280 280 280 281 281 281 281 282 282 282 283 283
261 262 262 263 264 264 265 265 266 266 266 266 265 265 264 264 263 264 264 265 265 265 266 266 267 267 267 268 269 269 268 268 268 268 269 269 269 269 269 268 268 267 267 267 267 267 268 268 268 268 269 269 269 270 270 271 272 273 274 275 276 276 277 277 277 277 278 278 278 279 279 279 279 280 280 280 281 281 282 282 283 283 284 284 284
261 262 262 263 263 264 264 265 266 266 266 266 266 265 265 265 264 264 264 264 265 265 265 266 267 267 268 269 270 270 270 271 271 271 271 271 272 272 272 271 271 271 270 269 269 269 268 268 268 268 268 268 267 267 268 268 269 270 271 272 273 274 275 276 276 277 277 277 278 279 279 280 280 280 281 281 282 282 283 283 283 284 284 285 284
262 262 262 263 263 263 264 264 264 265 265 265 266 265 265 265 265 264 264 264 265 265 266 266 266 267 267 268 269 270 271 271 271 272 272 273 273 273 273 273 273 273 273 272 271 270 270 269 269 269 268 268 267 266 266 266 267 268 269 270 270 271 272 273 274 275 276 277 277 278 279 279 280 281 281 282 282 283 283 283 284 284 284 284 283
263 263 263 263 263 263 263 263 263 264 264 264 264 265 265 265 265 264 264 264 264 265 266 266 266 266 266 267 268 269 271 271 271 271 271 272 272 273 274 274 274 275 275 274 273 272 272 271 271 270 269 268 268 267 267 266 266 267 267 268 269 270 270 271 271 272 273 275 276 277 278 279 279 280 281 281 282 282 283 283 284 284 283 282 282
263 263 263 263 263 263 263 263 263 264 264 264 264 264 264 264 264 264 264 264 264 264 265 266 266 266 266 267 267 268 269 270 271 271 271 271 271 272 273 274 274 275 275 276 275 275 274 274 273 273 272 271 269 268 268 267 267 267 268 268 269 269 269 270 270 271 272 273 274 275 276 277 278 279 279 280 281 281 282 282 282 282 282 281 281
263 263 263 263 263 263 263 263 263 263 264 264 264 265 265 265 265 264 264 264 264 264 264 265 266 266 266 267 267 267 267 268 269 270 271 271 271 272 272 272 272 272 273 273 274 275 275 275 275 274 274 273 272 271 271 270 270 269 268 268 268 268 268 269 270 271 271 272 273 274 275 276 277 278 278 279 280 280 281 281 281 281 280 280 280
264 263 263 263 263 263 263 263 263 263 263 264 264 265 265 265 265 265 264 264 264 264 263 264 264 265 266 267 266 266 266 266 267 268 269 270 271 271 271 270 270 270 270 271 271 272 272 273 273 273 273 273 273 273 273 272 271 270 270 269 268 268 269 269 270 270 271 271 272 273 274 275 276 277 277 278 279 279 280 280 280 279 279 279 279
263 264 264 264 264 264 263 263 263 263 263 264 264 265 265 265 265 265 265 264 263 263 263 262 263 264 265 265 266 266 266 266 267 268 269 270 270 270 269 269 269 269 269 269 270 270 271 271 271 271 271 272 272 272 272 272 272 271 271 270 270 269 269 269 270 270 271 272 272 273 274 275 275 276 276 277 278 278 278 278 278 278 278 278 278
262 262 263 263 263 264 263 263 263 262 263 263 264 264 264 264 264 264 265 265 264 264 263 263 263 263 263 263 264 265 266 267 268 269 270 269 269 269 268 268 269 269 269 270 271 271 271 271 271 271 271 271 271 271 270 270 270 269 269 269 269 269 269 270 270 271 271 272 273 273 273 274 274 275 275 276 276 276 276 276 276 276 276 276 277
262 261 261 261 262 263 263 263 263 262 262 262 261 261 262 263 263 263 264 264 264 264 264 264 264 264 263 262 262 265 266 267 268 268 269 269 269 269 269 269 269 269 270 271 272 272 271 271 271 271 272 271 271 270 269 269 268 268 268 268 268 269 269 270 270 271 271 271 272 272 272 272 273 273 274 274 274 274 274 274 274 274 274 275 277
263 262 261 261 261 262 263 263 263 263 262 261 260 260 261 261 262 262 262 263 263 264 264 264 263 263 264 263 263 263 264 265 266 266 266 267 267 267 268 268 269 269 270 271 271 271 271 271 271 272 271 271 270 270 269 268 268 267 267 267 267 268 268 269 269 269 270 270 270 270 271 271 271 271 272 272 272 271 271 272 272 272 274 275 276
262 262 262 262 262 262 263 263 263 263 262 262 261 261 261 261 261 261 262 262 262 263 263 262 261 260 262 264 264 263 261 262 264 264 264 264 264 265 266 267 268 269 270 270 270 269 270 270 271 271 271 270 270 269 269 268 267 266 266 266 266 267 267 268 268 268 268 268 268 268 269 269 269 269 269 269 269 269 270 270 271 272 273 274 274
261 261 262 262 262 262 262 262 263 263 263 263 262 262 261 261 261 261 260 261 261 262 261 261 260 259 260 261 263 263 262 262 262 262 262 263 263 264 265 266 267 268 269 268 268 268 269 270 270 269 269 269 269 269 268 267 266 266 266 266 266 266 266 266 266 266 266 266 266 267 267 267 267 267 267 267 267 268 269 270 270 271 272 272 272
262 262 262 261 261 261 261 262 262 263 263 263 263 263 262 262 262 262 261 261 261 261 260 260 259 259 258 258 259 261 262 261 260 261 262 262 263 263 263 264 266 267 267 267 267 267 268 268 268 268 268 268 268 268 266 266 265 265 265 265 265 265 264 264 265 264 264 265 265 265 265 265 265 265 266 266 266 267 268 268 269 270 270 271 271
263 263 262 261 261 261 261 261 261 261 261 261 262 262 262 262 261 261 261 260 259 259 259 259 258 257 257 256 257 259 260 260 260 260 261 261 261 262 262 263 264 265 265 265 266 266 265 265 266 267 267 267 266 266 265 265 264 264 264 263 263 263 263 263 263 263 263 263 263 263 264 264 264 264 265 265 266 266 267 267 267 268 269 269 270
262 262 262 262 262 261 261 261 261 261 261 261 261 261 260 260 260 260 259 259 258 258 258 258 258 257 257 257 258 258 259 260 259 259 259 259 260 261 261 261 262 263 263 263 263 263 262 263 264 265 266 265 265 264 264 264 263 263 262 262 261 261 261 261 261 261 261 262 262 262 263 263 263 263 264 264 264 265 265 266 266 267 267 268 268
261 261 260 260 260 260 260 260 260 260 260 260 260 260 259 259 259 259 259 259 259 260 260 260 260 260 259 259 259 260 261 261 261 260 260 260 259 259 259 259 259 259 260 259 259 260 260 261 263 263 264 264 263 263 263 262 262 261 261 260 260 260 260 260 260 260 260 260 261 261 261 261 261 262 262 262 263 263 264 265 265 265 266 266 266
263 262 261 260 259 258 258 258 258 258 258 258 258 258 258 258 258 259 259 259 259 260 260 261 261 261 261 261 261 262 263 263 263 263 262 261 259 258 257 256 255 255 255 256 257 258 258 259 261 261 262 262 262 262 261 261 261 260 260 259 259 259 259 259 259 259 259 259 259 259 259 260 260 260 260 261 262 262 263 264 264 264 264 265 266
264 263 262 261 260 259 258 258 257 257 257 257 257 257 257 257 257 257 258 258 258 258 258 259 259 259 259 260 260 261 262 263 263 263 262 260 259 257 255 254 253 253 253 254 254 255 256 258 259 259 260 260 260 260 260 260 260 260 260 259 259 259 258 258 258 259 259 259 258 258 258 258 258 259 259 260 260 261 262 262 262 263 263 264 265
264 263 262 261 260 260 259 258 258 258 257 257 257 257 257 257 256 256 256 256 256 255 255 255 256 256 256 256 257 257 259 260 260 260 259 258 257 255 254 252 251 251 251 251 252 253 255 256 257 257 258 259 259 259 259 260 260 259 259 259 259 259 259 258 258 258 258 258 257 257 257 257 258 258 259 259 260 260 261 261 261 262 263 264 265
262 261 260 260 259 259 258 258 258 257 257 257 257 256 256 256 256 256 255 255 254 254 253 253 253 253 253 253 254 254 255 255 255 255 255 255 254 252 251 250 249 249 249 250 251 252 253 254 255 256 257 257 258 258 259 259 259 259 259 259 259 258 258 257 257 257 256 256 256 256 256 256 256 257 258 258 259 259 260 260 261 261 262 263 265
261 260 259 259 258 258 257 257 256 256 256 256 255 255 255 255 254 254 253 253 252 252 252 251 251 251 251 251 251 251 251 251 251 251 251 250 250 249 249 248 248 248 248 249 250 251 252 253 254 255 255 256 257 258 258 258 259 259 258 258 257 257 257 256 256 255 255 255 255 255 255 255 256 256 257 257 258 259 260 260 260 261 262 263 265
260 259 259 258 257 257 256 256 256 255 255 254 254 254 253 253 252 252 251 250 250 249 249 249 249 249 248 248 248 247 247 247 247 247 247 247 247 247 247 246 247 247 247 248 249 249 250 252 253 253 254 255 256 256 257 257 257 257 257 256 256 255 255 254 254 254 254 254 254 254 254 255 255 256 256 257 258 258 259 260 260 261 262 263 265
260 259 258 257 257 256 255 255 255 254 254 253 253 252 252 251 250 250 248 248 247 247 247 246 246 246 245 245 244 244 243 243 243 243 243 244 244 244 245 245 245 245 246 246 247 248 249 250 251 252 253 253 254 255 255 256 256 255 255 254 254 253 253 253 253 253 253 254 254 254 254 254 255 256 256 257 258 258 259 259 260 261 262 263 264
Height
10570 10570 10571 10573 10572 10572 10572 10574 10575 10576 10577 10576 10577 10577 10577 10577 10578 10579 10580 10581 10581 10581 10582 10583 10584 10586 10586 10587 10587 10588 10588 10589 10589 10589 10589 10589 10589 10589 10588 10588 10587 10587 10587 10586 10586 10586 10585 10585 10584 10584 10583 10583 10583 10583 10583 10583 10583 10583 10583 10583 10583 10584 10584 10584 10584 10584 10584 10584 10585 10585 10584 10584 10584 10584 10584 10584 10584 10584 10583 10583 10583 10583 10583 10582 10582
10565 10565 10566 10568 10568 10566 10566 10568 10569 10572 10573 10572 10571 10571 10571 10572 10572 10573 10575 10576 10576 10576 10576 10577 10578 10579 10580 10580 10580 10581 10581 10582 10582 10583 10583 10583 10582 10582 10582 10582 10581 10581 10581 10580 10580 10579 10579 10578 10577 10576 10575 10575 10575 10575 10576 10576 10576 10576 10575 10576 10576 10576 10576 10577 10577 10577 10578 10578 10578 10578 10578 10578 10578 10578 10578 10578 10578 10578 10578 10578 10578 10577 10577 10577 10577
10560 10560 10560 10563 10564 10562 10562 10563 10565 10569 10570 10567 10566 10567 10567 10567 10567 10567 10569 10570 10570 10570 10570 10570 10571 10572 10573 10573 10573 10574 10574 10575 10575 10576 10576 10576 10576 10576 10576 10576 10576 10575 10575 10574 10573 10573 10572 10571 10570 10569 10567 10567 10567 10567 10568 10568 10568 10568 10568 10568 10568 10569 10569 10569 10570 10570 10570 10570 10571 10571 10571 10572 10572 10572 10572 10572 10572 10572 10571 10571 10571 10571 10570 10571 10571
10555 10555 10556 10557 10558 10558 10559 10560 10562 10565 10566 10564 10563 10563 10563 10562 10562 10562 10563 10563 10564 10564 10564 10564 10565 10566 10566 10566 10567 10567 10568 10569 10569 10569 10569 10569 10570 10570 10570 10570 10570 10569 10569 10567 10566 10565 10565 10564 10562 10561 10560 10559 10559 10559 10559 10560 10560 10560 10560 10560 10561 10561 10562 10562 10562 10562 10562 10563 10563 10564 10564 10565 10565 10564 10564 10564 10565 10565 10564 10564 10564 10564 10563 10564 10565
10551 10551 10551 10552 10553 10553 10554 10555 10557 10559 10559 10558 10559 10558 10558 10558 10557 10556 10556 10557 10558 10558 10558 10559 10560 10560 10560 10560 10561 10562 10562 10563 10563 10563 10562 10562 10563 10563 10564 10564 10563 10563 10562 10560 10559 10558 10557 10556 10555 10554 10553 10552 10551 10551 10551 10551 10552 10552 10552 10552 10552 10553 10554 10554 10554 10554 10554 10554 10555 10556 10557 10557 10557 10557 10556 10557 10557 10557 10556 10556 10556 10557 10556 10557 10558
10545 10547 10547 10547 10548 10548 10549 10550 10551 10552 10552 10552 10552 10551 10551 10552 10551 10551 10551 10551 10552 10552 10552 10553 10554 10555 10554 10554 10555 10555 10556 10557 10556 10556 10555 10555 10556 10556 10557 10558 10557 10556 10554 10552 10551 10550 10549 10548 10547 10547 10546 10545 10544 10544 10544 10544 10544 10544 10544 10544 10544 10544 10545 10545 10546 10546 10546 10546 10547 10548 10548 10548 10549 10549 10548 10548 10549 10548 10548 10548 10549 10549 10549 10549 10551
10538 10542 10544 10545 10544 10545 10546 10546 10545 10544 10545 10545 10545 10545 10545 10545 10545 10545 10545 10545 10545 10546 10546 10547 10548 10549 10549 10548 10548 10549 10549 10550 10549 10548 10548 10548 10549 10550 10551 10551 10550 10549 10547 10544 10543 10543 10542 10541 10540 10540 10539 10538 10537 10537 10537 10537 10537 10537 10536 10536 10536 10536 10536 10537 10538 10538 10538 10538 10539 10540 10540 10540 10540 10540 10540 10539 10540 10540 10540 10540 10540 10541 10542 10542 10543
10533 10537 10540 10540 10539 10541 10544 10543 10539 10537 10538 10539 10539 10538 10539 10539 10539 10538 10539 10539 10539 10540 10541 10542 10543 10545 10543 10541 10541 10542 10542 10542 10541 10539 10540 10541 10543 10544 10544 10543 10543 10542 10540 10538 10536 10536 10535 10534 10533 10533 10532 10532 10531 10530 10530 10529 10530 10529 10528 10528 10528 10528 10529 10529 10529 10529 10529 10531 10532 10533 10532 10532 10532 10532 10531 10531 10532 10532 10532 10532 10532 10533 10534 10534 10534
10526 10531 10533 10533 10532 10535 10539 10539 10535 10532 10532 10534 10534 10533 10534 10534 10532 10531 10531 10532 10532 10533 10535 10539 10541 10540 10538 10536 10536 10536 10536 10535 10533 10532 10533 10534 10536 10539 10538 10536 10536 10536 10534 10532 10530 10530 10529 10528 10527 10526 10526 10525 10524 10523 10523 10522 10523 10522 10521 10521 10521 10522 10522 10521 10521 10521 10522 10524 10525 10525 10524 10524 10524 10524 10523 10523 10524 10523 10524 10524 10524 10524 10525 10525 10525
10519 10524 10527 10525 10525 10527 10529 10530 10528 10526 10527 10529 10531 10532 10532 10529 10525 10523 10523 10523 10524 10525 10529 10536 10539 10536 10532 10532 10532 10530 10528 10527 10525 10525 10527 10528 10530 10533 10534 10530 10528 10528 10528 10527 10525 10524 10522 10521 10520 10520 10519 10518 10518 10517 10516 10516 10516 10515 10515 10515 10515 10515 10515 10515 10514 10514 10515 10517 10518 10517 10517 10517 10518 10517 10516 10515 10515 10515 10515 10515 10516 10515 10516 10516 10516
10510 10514 10516 10517 10517 10516 10517 10519 10519 10519 10521 10523 10527 10530 10529 10524 10519 10516 10514 10513 10515 10516 10520 10528 10534 10532 10529 10529 10526 10522 10518 10517 10516 10517 10519 10520 10521 10525 10527 10524 10521 10521 10521 10520 10518 10516 10515 10514 10513 10512 10512 10511 10510 10510 10509 10509 10509 10508 10508 10508 10508 10509 10508 10508 10508 10508 10508 10509 10510 10510 10509 10509 10510 10510 10509 10508 10508 10507 10506 10507 10507 10507 10507 10507 10506
10498 10502 10504 10506 10506 10507 10507 10509 10511 10512 10513 10515 10520 10523 10522 10517 10512 10508 10506 10505 10506 10507 10511 10518 10524 10525 10525 10526 10521 10512 10507 10507 10507 10508 10509 10509 10510 10512 10515 10515 10515 10513 10511 10510 10508 10505 10504 10504 10503 10503 10503 10502 10502 10502 10502 10502 10502 10501 10501 10501 10500 10501 10501 10500 10500 10500 10501 10501 10502 10502 10502 10501 10503 10503 10501 10500 10500 10500 10499 10499 10499 10499 10498 10498 10498
10485 10489 10492 10493 10494 10496 10497 10499 10502 10505 10506 10508 10512 10513 10510 10506 10503 10500 10499 10498 10499 10500 10502 10508 10513 10515 10516 10517 10512 10502 10498 10498 10499 10499 10499 10498 10498 10500 10502 10503 10504 10504 10502 10500 10498 10495 10494 10493 10493 10493 10492 10492 10493 10494 10494 10495 10495 10494 10494 10493 10493 10492 10492 10492 10492 10493 10493 10493 10493 10494 10494 10493 10494 10495 10493 10492 10492 10492 10491 10491 10491 10491 10490 10489 10489
10475 10478 10480 10481 10482 10484 10487 10490 10493 10495 10498 10500 10502 10501 10498 10495 10493 10492 10492 10492 10491 10491 10493 10497 10501 10502 10502 10502 10498 10492 10490 10489 10490 10490 10489 10488 10487 10488 10489 10490 10492 10492 10492 10490 10488 10487 10486 10485 10485 10485 10483 10482 10482 10483 10484 10485 10486 10486 10486 10485 10485 10485 10484 10484 10484 10484 10485 10485 10485 10485 10485 10484 10484 10486 10485 10483 10483 10483 10482 10482 10481 10482 10481 10480 10479
10466 10468 10468 10470 10472 10474 10476 10479 10481 10483 10486 10488 10490 10490 10488 10486 10484 10483 10483 10483 10482 10482 10483 10485 10486 10486 10487 10488 10486 10483 10482 10481 10480 10480 10480 10478 10478 10477 10477 10478 10478 10479 10479 10480 10479 10477 10476 10476 10476 10476 10476 10475 10474 10474 10474 10474 10475 10475 10476 10476 10476 10476 10475 10475 10475 10475 10475 10475 10475 10475 10475 10474 10474 10475 10474 10474 10474 10473 10472 10472 10472 10472 10472 10470 10469
10457 10460 10461 10462 10464 10465 10467 10468 10470 10471 10473 10476 10477 10477 10476 10476 10474 10473 10473 10473 10473 10473 10473 10474 10474 10474 10474 10473 10472 10471 10471 10470 10469 10469 10467 10466 10466 10465 10464 10464 10464 10464 10465 10468 10468 10468 10467 10467 10467 10466 10466 10467 10467 10467 10467 10467 10467 10467 10466 10466 10466 10466 10466 10465 10465 10465 10465 10465 10465 10465 10465 10465 10464 10464 10464 10463 10463 10463 10462 10461 10461 10461 10462 10461 10459
10450 10452 10453 10453 10454 10455 10456 10457 10458 10460 10461 10463 10463 10462 10462 10463 10462 10462 10462 10462 10462 10462 10463 10464 10463 10463 10464 10463 10461 10460 10459 10459 10458 10457 10455 10454 10453 10452 10452 10452 10451 10451 10452 10455 10456 10457 10457 10457 10457 10456 10456 10456 10457 10457 10458 10458 10460 10459 10458 10458 10459 10458 10457 10456 10456 10455 10455 10454 10455 10454 10454 10454 10453 10453 10453 10453 10452 10452 10451 10451 10451 10451 10451 10451 10449
10440 10441 10441 10442 10443 10444 10445 10446 10447 10448 10449 10450 10450 10449 10449 10450 10450 10450 10450 10451 10451 10451 10452 10453 10453 10453 10453 10453 10453 10453 10452 10451 10450 10449 10447 10446 10444 10443 10442 10442 10442 10442 10443 10446 10446 10445 10446 10447 10447 10447 10446 10446 10446 10446 10447 10448 10450 10450 10449 10449 10450 10450 10449 10447 10447 10447 10446 10445 10445 10445 10444 10444 10443 10443 10443 10442 10442 10442 10441 10441 10440 10440 10441 10440 10440
10428 10429 10430 10431 10433 10433 10434 10435 10436 10436 10436 10437 10438 10437 10438 10438 10438 10439 10439 10439 10439 10440 10441 10442 10442 10441 10441 10441 10442 10442 10441 10441 10442 10441 10440 10439 10437 10436 10433 10433 10434 10434 10435 10438 10438 10436 10436 10436 10436 10436 10436 10436 10436 10435 10436 10437 10439 10440 10440 10440 10440 10441 10440 10438 10437 10438 10437 10436 10436 10435 10434 10434 10434 10433 10433 10433 10432 10432 10432 10431 10430 10430 10431 10430 10430
10416 10418 10419 10421 10422 10422 10422 10423 10424 10423 10423 10424 10425 10426 10427 10427 10428 10429 10428 10427 10428 10428 10429 10430 10429 10429 10429 10429 10430 10430 10429 10430 10431 10431 10430 10429 10428 10428 10425 10423 10425 10425 10425 10428 10429 10428 10428 10426 10425 10426 10426 10426 10427 10426 10426 10427 10428 10429 10430 10430 10431 10431 10430 10429 10427 10426 10427 10427 10426 10425 10425 10425 10425 10424 10425 10424 10423 10423 10422 10421 10421 10421 10421 10421 10420
10404 10406 10408 10410 10411 10412 10412 10413 10412 10412 10412 10413 10414 10415 10416 10416 10417 10418 10418 10417 10418 10418 10418 10419 10418 10418 10418 10418 10419 10419 10418 10419 10420 10420 10419 10418 10418 10418 10416 10414 10414 10414 10416 10418 10418 10421 10423 10417 10412 10415 10418 10417 10417 10417 10417 10417 10418 10419 10420 10420 10420 10420 10420 10420 10418 10416 10416 10417 10417 10416 10416 10417 10416 10416 10416 10416 10415 10414 10413 10412 10412 10411 10411 10412 10411
10393 10394 10396 10398 10399 10401 10402 10403 10403 10402 10402 10403 10404 10404 10405 10406 10406 10407 10407 10407 10407 10407 10407 10407 10408 10408 10409 10408 10408 10408 10408 10408 10409 10409 10409 10408 10408 10408 10406 10405 10404 10404 10406 10407 10408 10414 10417 10410 10403 10405 10408 10408 10408 10408 10408 10408 10408 10409 10409 10409 10410 10410 10410 10411 10410 10409 10407 10407 10407 10408 10408 10408 10408 10408 10407 10407 10408 10407 10404 10403 10403 10402 10402 10402 10402
10383 10384 10385 10385 10387 10389 10390 10392 10392 10392 10392 10393 10393 10393 10394 10394 10395 10395 10396 10396 10397 10397 10396 10396 10396 10398 10398 10397 10397 10397 10397 10398 10399 10399 10399 10398 10398 10398 10397 10396 10394 10393 10394 10396 10398 10404 10407 10401 10397 10397 10397 10397 10398 10398 10398 10399 10399 10399 10399 10399 10399 10400 10400 10401 10401 10400 10400 10399 10399 10398 10399 10400 10399 10399 10399 10399 10399 10398 10397 10395 10394 10393 10393 10393 10392
10372 10374 10374 10374 10375 10376 10377 10379 10381 10381 10381 10381 10381 10382 10383 10383 10383 10383 10384 10385 10385 10385 10385 10384 10384 10386 10387 10386 10386 10386 10385 10387 10389 10390 10390 10390 10390 10389 10388 10387 10385 10384 10384 10384 10386 10392 10394 10391 10390 10390 10388 10387 10388 10388 10388 10389 10389 10389 10389 10389 10389 10390 10390 10391 10391 10391 10390 10391 10390 10389 10389 10390 10390 10390 10390 10390 10389 10389 10388 10387 10385 10385 10384 10383 10382
10361 10361 10361 10362 10363 10364 10364 10366 10368 10369 10369 10369 10370 10371 10371 10372 10372 10371 10371 10372 10372 10372 10373 10372 10372 10374 10374 10373 10373 10374 10374 10376 10377 10378 10380 10381 10381 10380 10380 10380 10378 10377 10377 10376 10376 10378 10382 10382 10381 10380 10379 10379 10378 10378 10378 10379 10379 10379 10379 10379 10379 10380 10380 10380 10380 10380 10380 10380 10380 10379 10380 10380 10380 10380 10379 10379 10379 10379 10378 10377 10376 10376 10375 10374 10372
10350 10350 10349 10349 10350 10350 10351 10352 10354 10355 10357 10358 10359 10359 10360 10361 10362 10360 10359 10359 10359 10358 10358 10358 10359 10360 10360 10358 10358 10361 10364 10365 10364 10364 10366 10369 10370 10370 10371 10371 10371 10369 10369 10369 10367 10367 10369 10371 10372 10371 10370 10370 10369 10368 10368 10368 10368 10369 10369 10368 10369 10370 10369 10369 10369 10369 10370 10369 10369 10369 10370 10370 10370 10370 10369 10369 10368 10368 10368 10367 10366 10365 10364 10364 10362
10338 10338 10337 10337 10337 10337 10337 10339 10340 10341 10343 10345 10346 10347 10348 10350 10352 10350 10347 10346 10346 10346 10344 10344 10346 10346 10345 10343 10343 10347 10352 10354 10352 10351 10353 10355 10357 10358 10359 10360 10360 10360 10360 10359 10358 10358 10359 10360 10361 10361 10361 10360 10360 10359 10359 10358 10358 10358 10358 10358 10359 10359 10359 10359 10358 10359 10359 10358 10358 10359 10360 10360 10360 10360 10359 10358 10358 10357 10357 10357 10355 10354 10353 10353 10352
10325 10325 10324 10324 10324 10324 10324 10325 10326 10327 10328 10330 10331 10333 10335 10336 10339 10340 10337 10334 10334 10334 10332 10332 10333 10333 10332 10331 10331 10332 10337 10340 10339 10339 10341 10341 10342 10345 10347 10347 10347 10348 10349 10349 10348 10348 10349 10349 10349 10350 10350 10350 10350 10350 10350 10349 10348 10348 10348 10347 10348 10348 10348 10348 10348 10348 10348 10348 10348 10349 10349 10350 10350 10349 10349 10348 10348 10347 10347 10346 10345 10344 10343 10342 10342
10312 10312 10311 10311 10311 10311 10311 10312 10313 10314 10314 10315 10316 10318 10320 10322 10324 10326 10326 10323 10321 10321 10321 10320 10320 10320 10321 10321 10319 10318 10322 10326 10325 10325 10327 10328 10329 10332 10334 10334 10333 10334 10336 10338 10337 10337 10338 10338 10338 10339 10339 10339 10339 10339 10340 10340 10339 10338 10338 10337 10338 10339 10338 10337 10337 10337 10337 10337 10338 10338 10338 10339 10339 10339 10338 10338 10337 10337 10337 10336 10335 10335 10334 10333 10331
10298 10298 10298 10298 10298 10298 10299 10299 10300 10300 10301 10301 10301 10302 10305 10308 10309 10310 10312 10311 10308 10307 10308 10309 10309 10309 10310 10310 10307 10305 10308 10312 10312 10312 10313 10316 10317 10318 10319 10320 10321 10321 10322 10324 10325 10325 10325 10326 10327 10327 10327 10326 10326 10327 10328 10329 10329 10328 10328 10327 10327 10329 10328 10327 10327 10327 10326 10327 10327 10328 10328 10328 10328 10328 10328 10328 10327 10327 10326 10326 10326 10325 10324 10323 10321
10284 10284 10283 10283 10283 10284 10285 10286 10286 10287 10288 10288 10287 10288 10291 10293 10295 10295 10297 10298 10297 10295 10294 10295 10297 10298 10298 10298 10297 10295 10294 10297 10299 10300 10301 10303 10305 10306 10307 10308 10309 10308 10309 10310 10311 10312 10313 10314 10315 10315 10314 10313 10314 10314 10315 10316 10317 10318 10317 10316 10317 10317 10318 10317 10317 10317 10318 10317 10317 10317 10318 10318 10318 10318 10318 10318 10317 10317 10317 10317 10316 10316 10315 10313 10311
10270 10270 10270 10269 10269 10270 10271 10271 10272 10272 10273 10274 10275 10277 10278 10279 10281 10282 10283 10284 10285 10285 10283 10282 10283 10285 10285 10285 10287 10288 10284 10281 10283 10286 10288 10291 10293 10295 10296 10297 10297 10297 10297 10296 10296 10299 10301 10302 10302 10302 10300 10300 10301 10301 10302 10304 10305 10306 10306 10306 10306 10306 10306 10306 10306 10307 10309 10309 10308 10308 10308 10309 10309 10309 10308 10308 10308 10308 10308 10308 10307 10306 10305 10303 10303
10256 10257 10256 10255 10255 10256 10257 10258 10258 10258 10260 10261 10262 10263 10265 10265 10266 10268 10270 10271 10271 10273 10273 10272 10271 10272 10273 10273 10276 10278 10274 10270 10270 10273 10275 10278 10281 10283 10286 10288 10287 10286 10286 10284 10285 10287 10290 10290 10289 10289 10288 10287 10288 10289 10290 10292 10292 10293 10293 10294 10295 10295 10295 10296 10296 10297 10299 10299 10299 10299 10299 10299 10300 10300 10299 10299 10299 10299 10299 10299 10298 10297 10296 10295 10294
10242 10243 10243 10242 10242 10242 10244 10245 10245 10246 10247 10249 10250 10251 10252 10252 10252 10253 10255 10258 10259 10259 10261 10262 10261 10260 10262 10262 10262 10262 10261 10259 10260 10263 10265 10267 10270 10273 10274 10276 10276 10275 10275 10274 10275 10278 10280 10280 10278 10278 10278 10277 10278 10278 10278 10279 10279 10280 10281 10282 10283 10284 10284 10285 10286 10287 10288 10289 10289 10290 10290 10290 10290 10290 10290 10290 10290 10290 10290 10290 10289 10288 10287 10287 10287
10230 10231 10230 10229 10229 10230 10231 10232 10233 10234 10236 10237 10239 10240 10240 10240 10240 10240 10240 10243 10246 10246 10247 10250 10251 10252 10251 10249 10246 10247 10248 10248 10250 10253 10256 10258 10260 10261 10262 10262 10262 10263 10263 10263 10264 10268 10270 10269 10267 10267 10268 10268 10268 10267 10267 10267 10268 10269 10270 10270 10272 10273 10274 10275 10276 10277 10278 10279 10280 10280 10281 10281 10281 10282 10282 10282 10282 10282 10281 10281 10281 10280 10280 10279 10279
10219 10220 10219 10217 10216 10217 10217 10219 10221 10223 10225 10227 10228 10228 10227 10227 10228 10229 10229 10230 10232 10233 10234 10237 10241 10241 10240 10237 10235 10234 10236 10239 10241 10243 10245 10247 10248 10249 10249 10249 10250 10251 10252 10253 10254 10257 10259 10257 10256 10257 10258 10258 10257 10257 10257 10258 10258 10259 10259 10260 10261 10262 10264 10265 10266 10267 10268 10269 10270 10271 10272 10272 10273 10273 10273 10273 10273 10273 10273 10273 10273 10273 10272 10272 10273
10206 10207 10206 10205 10205 10205 10206 10208 10210 10213 10215 10216 10215 10215 10216 10216 10217 10218 10219 10219 10219 10220 10222 10226 10229 10228 10224 10225 10227 10227 10226 10228 10232 10234 10234 10235 10236 10237 10238 10238 10240 10241 10242 10244 10245 10247 10247 10246 10246 10248 10249 10248 10247 10247 10248 10248 10249 10250 10250 10251 10252 10253 10255 10256 10257 10258 10259 10260 10261 10262 10263 10264 10264 10265 10265 10266 10266 10266 10266 10266 10266 10266 10266 10266 10266
10194 10194 10194 10195 10195 10195 10195 10197 10200 10201 10202 10203 10203 10205 10206 10207 10207 10209 10210 10209 10209 10210 10211 10215 10218 10216 10211 10213 10218 10219 10218 10218 10221 10224 10225 10225 10226 10227 10228 10229 10230 10232 10234 10236 10236 10237 10237 10237 10238 10239 10239 10238 10238 10239 10240 10240 10241 10242 10242 10243 10244 10245 10246 10248 10249 10250 10251 10252 10253 10254 10254 10255 10256 10257 10258 10258 10258 10258 10259 10259 10260 10260 10260 10260 10260
10183 10183 10184 10185 10185 10186 10186 10187 10188 10189 10190 10191 10193 10195 10197 10197 10198 10199 10200 10199 10200 10201 10201 10203 10205 10205 10204 10204 10205 10205 10208 10211 10213 10214 10215 10216 10217 10219 10220 10221 10222 10224 10226 10228 10228 10228 10229 10230 10230 10230 10230 10230 10231 10232 10232 10233 10233 10234 10235 10236 10237 10238 10239 10240 10241 10242 10243 10244 10245 10246 10247 10248 10249 10250 10251 10251 10251 10252 10252 10253 10253 10254 10254 10255 10254
10173 10173 10175 10175 10176 10176 10177 10177 10178 10179 10180 10181 10182 10184 10186 10187 10187 10189 10189 10190 10191 10192 10191 10192 10193 10196 10198 10198 10193 10191 10197 10204 10206 10205 10205 10207 10209 10212 10213 10213 10214 10216 10218 10219 10220 10220 10222 10222 10222 10222 10222 10223 10224 10225 10225 10226 10226 10227 10228 10229 10230 10231 10232 10233 10234 10235 10236 10237 10238 10239 10240 10241 10242 10243 10244 10245 10245 10246 10246 10247 10247 10248 10248 10249 10248
10164 10165 10166 10166 10166 10167 10168 10169 10169 10170 10170 10171 10172 10174 10176 10176 10177 10179 10180 10181 10183 10183 10181 10182 10185 10188 10190 10189 10185 10183 10188 10194 10196 10196 10198 10200 10202 10203 10204 10205 10207 10208 10210 10211 10212 10213 10214 10214 10214 10214 10215 10217 10218 10218 10218 10219 10220 10221 10222 10223 10223 10225 10226 10226 10227 10228 10229 10231 10232 10233 10234 10235 10236 10237 10237 10238 10239 10239 10240 10241 10241 10242 10243 10243 10243
10156 10156 10157 10157 10158 10158 10160 10160 10161 10160 10161 10162 10163 10165 10166 10166 10167 10170 10171 10171 10173 10173 10172 10174 10177 10178 10178 10179 10178 10178 10179 10183 10186 10188 10190 10192 10193 10195 10197 10198 10200 10201 10202 10204 10205 10206 10206 10206 10207 10207 10209 10211 10211 10211 10212 10213 10214 10215 10216 10217 10217 10218 10219 10220 10221 10222 10223 10225 10226 10227 10228 10229 10230 10230 10231 10232 10233 10234 10234 10235 10236 10237 10237 10238 10238
10149 10149 10149 10149 10150 10151 10151 10151 10151 10152 10153 10154 10155 10156 10157 10157 10158 10160 10161 10162 10162 10164 10165 10166 10168 10169 10170 10171 10171 10171 10172 10175 10178 10180 10182 10184 10186 10188 10189 10191 10192 10193 10195 10196 10197 10198 10199 10199 10200 10202 10203 10204 10205 10206 10207 10207 10208 10209 10210 10211 10212 10213 10214 10214 10215 10216 10218 10219 10220 10221 10222 10223 10224 10224 10225 10226 10227 10228 10229 10230 10231 10232 10232 10233 10233
10142 10142 10142 10142 10143 10144 10144 10144 10144 10145 10145 10146 10147 10147 10148 10149 10150 10151 10153 10153 10154 10155 10157 10158 10159 10161 10162 10164 10164 10164 10166 10168 10170 10173 10175 10177 10179 10180 10182 10183 10185 10186 10188 10189 10189 10190 10192 10193 10194 10196 10197 10198 10199 10200 10201 10202 10202 10203 10204 10205 10206 10207 10208 10209 10210 10211 10212 10213 10214 10215 10216 10217 10218 10219 10220 10221 10222 10223 10224 10225 10226 10227 10227 10228 10228
10135 10135 10135 10136 10136 10137 10137 10137 10137 10138 10138 10139 10139 10140 10141 10142 10143 10144 10145 10146 10147 10148 10150 10151 10152 10154 10155 10156 10157 10158 10159 10161 10163 10166 10168 10169 10171 10173 10174 10176 10177 10179 10180 10181 10182 10184 10185 10187 10188 10190 10191 10192 10193 10194 10195 10196 10197 10197 10199 10200 10201 10202 10203 10204 10204 10205 10207 10208 10209 10210 10211 10212 10213 10214 10215 10216 10217 10218 10219 10220 10221 10222 10222 10223 10223
10129 10129 10129 10130 10130 10130 10131 10131 10131 10132 10132 10133 10133 10134 10135 10136 10137 10138 10139 10140 10141 10142 10143 10144 10146 10147 10148 10150 10151 10152 10153 10155 10157 10159 10160 10162 10164 10166 10167 10169 10170 10172 10173 10175 10176 10178 10179 10181 10182 10184 10185 10186 10187 10188 10189 10190 10191 10192 10193 10194 10195 10196 10197 10198 10199 10200 10202 10203 10204 10205 10206 10207 10208 10209 10210 10211 10212 10213 10214 10215 10216 10217 10217 10218 10218
10124 10124 10124 10124 10124 10125 10125 10125 10126 10126 10126 10127 10127 10128 10129 10130 10130 10131 10132 10133 10134 10135 10136 10138 10139 10140 10142 10143 10144 10145 10147 10149 10151 10152 10154 10156 10157 10159 10160 10162 10163 10165 10167 10169 10170 10171 10173 10175 10176 10178 10179 10180 10181 10182 10183 10185 10186 10187 10188 10189 10190 10191 10193 10194 10195 10196 10197 10198 10199 10200 10201 10202 10203 10204 10205 10206 10207 10208 10209 10210 10211 10212 10212 10213 10213
10119 10119 10119 10119 10120 10120 10120 10120 10121 10121 10121 10122 10122 10123 10123 10124 10125 10126 10127 10128 10129 10130 10131 10132 10133 10134 10135 10137 10138 10140 10141 10143 10145 10146 10148 10149 10151 10153 10154 10155 10157 10159 10161 10163 10164 10166 10168 10169 10171 10172 10174 10175 10176 10177 10178 10179 10181 10182 10183 10185 10186 10187 10188 10189 10190 10191 10192 10193 10194 10195 10196 10197 10198 10199 10200 10201 10202 10203 10204 10205 10206 10207 10207 10208 10208
10115 10115 10115 10115 10115 10115 10116 10116 10116 10116 10117 10117 10118 10118 10119 10119 10120 10121 10122 10122 10123 10124 10125 10126 10128 10129 10130 10131 10133 10134 10136 10137 10139 10140 10142 10144 10145 10147 10148 10150 10152 10154 10155 10157 10159 10161 10163 10164 10166 10167 10168 10170 10171 10172 10173 10174 10176 10177 10178 10180 10181 10182 10183 10184 10185 10186 10187 10188 10189 10190 10191 10192 10193 10194 10195 10196 10197 10198 10199 10200 10201 10202 10203 10203 10203
10111 10111 10111 10111 10111 10111 10112 10112 10112 10112 10113 10113 10114 10114 10114 10115 10115 10116 10117 10118 10119 10120 10121 10122 10123 10124 10125 10127 10128 10129 10131 10132 10134 10135 10137 10138 10140 10142 10143 10145 10147 10148 10150 10152 10154 10156 10157 10159 10160 10162 10163 10164 10166 10167 10168 10169 10171 10172 10173 10175 10176 10177 10178 10179 10180 10181 10182 10183 10184 10185 10186 10187 10188 10189 10190 10191 10192 10193 10194 10195 10196 10197 10198 10198 10199
10108 10108 10108 10108 10108 10108 10108 10108 10108 10109 10109 10109 10110 10110 10111 10111 10112 10112 10113 10114 10114 10115 10116 10117 10119 10120 10121 10122 10123 10125 10126 10128 10129 10130 10132 10134 10135 10137 10138 10140 10142 10143 10145 10147 10149 10150 10152 10154 10155 10156 10158 10159 10160 10162 10163 10164 10166 10167 10168 10170 10171 10172 10173 10174 10175 10176 10177 10178 10179 10180 10181 10182 10183 10184 10185 10186 10187 10188 10189 10190 10191 10192 10193 10193 10194